Location: Observatory
(52.1446°N, 0.4624°W)
Time: 17:21:24
(UTC+00:00)

ISS - Pass Details

Date: 04 December 2021
Orbit: 417 x 422 km, 51.6° (Epoch: 06 December)

Event Time Altitude Azimuth Distance (km) Brightness Sun altitude
Rises 18:32:32 0° 281° (WNW) 2,379 1.3 -23.5°
Reaches altitude 10° 18:34:58 10° 265° (W) 1,511 0.2 -23.9°
Maximum altitude 18:37:35 21° 215° (SW) 1,009 -1.4 -24.3°
Enters shadow 18:37:59 21° 204° (SSW) 1,023 -1.5 -24.4°
